Wetterdaten: Samstag, 19.12.2009
Datum Zeit Temp. I. Temp. A. Boden 5 cm Feuchte A. Sonne Luftdruck Regen Wind
19.12.2009 00:00 21,6 C -6,8 C -8,3 C 82 % 0 % 996 hPa 0,0 l/m 4,3 km/h (1 Bft)
19.12.2009 00:03 21,6 C -6,8 C -8,4 C 82 % 0 % 996 hPa 0,0 l/m 3,2 km/h (1 Bft)
19.12.2009 00:06 21,6 C -7,1 C -8,5 C 82 % 0 % 996 hPa 0,0 l/m 2,7 km/h (1 Bft)
19.12.2009 00:09 21,6 C -7,1 C -8,4 C 82 % 0 % 996 hPa 0,0 l/m 3,3 km/h (1 Bft)
19.12.2009 00:12 21,6 C -7,1 C -8,4 C 82 % 0 % 996 hPa 0,0 l/m 3,3 km/h (1 Bft)
19.12.2009 00:15 21,6 C -7,1 C -8,4 C 82 % 0 % 996 hPa 0,0 l/m 3,3 km/h (1 Bft)
19.12.2009 00:18 21,7 C -7,2 C -8,4 C 83 % 0 % 996 hPa 0,0 l/m 7,2 km/h (2 Bft)
19.12.2009 00:21 21,6 C -7,2 C -8,4 C 83 % 0 % 995 hPa 0,0 l/m 2,5 km/h (1 Bft)
19.12.2009 00:24 21,6 C -7,3 C -8,5 C 83 % 0 % 995 hPa 0,0 l/m 1,8 km/h (1 Bft)
19.12.2009 00:27 21,6 C -7,3 C -8,6 C 83 % 0 % 995 hPa 0,0 l/m 0,7 km/h (0 Bft)
19.12.2009 00:30 21,6 C -7,3 C -8,6 C 83 % 0 % 995 hPa 0,0 l/m 1,2 km/h (1 Bft)
19.12.2009 00:33 21,6 C -7,4 C -8,6 C 83 % 0 % 995 hPa 0,0 l/m 1,2 km/h (1 Bft)
19.12.2009 00:36 21,6 C -7,4 C -8,5 C 83 % 0 % 995 hPa 0,0 l/m 3,3 km/h (1 Bft)
19.12.2009 00:39 21,7 C -7,5 C -8,6 C 83 % 0 % 995 hPa 0,0 l/m 2,7 km/h (1 Bft)
19.12.2009 00:42 21,7 C -7,5 C -8,7 C 83 % 0 % 995 hPa 0,0 l/m 3,2 km/h (1 Bft)
19.12.2009 00:45 21,7 C -7,5 C -8,7 C 84 % 0 % 995 hPa 0,0 l/m 4,9 km/h (1 Bft)
19.12.2009 00:48 21,7 C -7,5 C -8,7 C 84 % 0 % 996 hPa 0,0 l/m 5,9 km/h (2 Bft)
19.12.2009 00:51 21,7 C -7,5 C -8,6 C 84 % 0 % 996 hPa 0,0 l/m 8,3 km/h (2 Bft)
19.12.2009 00:54 21,7 C -7,6 C -8,5 C 84 % 0 % 996 hPa 0,0 l/m 5,2 km/h (1 Bft)
19.12.2009 00:57 21,7 C -7,6 C -8,5 C 84 % 0 % 996 hPa 0,0 l/m 3,4 km/h (1 Bft)
19.12.2009 01:00 21,7 C -7,6 C -8,5 C 84 % 0 % 996 hPa 0,0 l/m 5,8 km/h (2 Bft)
19.12.2009 01:03 21,7 C -7,6 C -8,5 C 84 % 0 % 996 hPa 0,0 l/m 11,3 km/h (2 Bft)
19.12.2009 01:06 21,7 C -7,6 C -8,5 C 85 % 0 % 996 hPa 0,0 l/m 7,0 km/h (2 Bft)
19.12.2009 01:09 21,7 C -7,6 C -8,5 C 85 % 0 % 996 hPa 0,0 l/m 1,0 km/h (0 Bft)
19.12.2009 01:12 21,7 C -7,6 C -8,4 C 85 % 0 % 996 hPa 0,0 l/m 4,5 km/h (1 Bft)
19.12.2009 01:15 21,7 C -7,6 C -8,4 C 85 % 0 % 996 hPa 0,0 l/m 3,1 km/h (1 Bft)
19.12.2009 01:18 21,7 C -7,7 C -8,4 C 85 % 0 % 996 hPa 0,0 l/m 0,6 km/h (0 Bft)
19.12.2009 01:21 21,7 C -7,7 C -8,5 C 85 % 0 % 996 hPa 0,0 l/m 4,6 km/h (1 Bft)
19.12.2009 01:24 21,7 C -7,7 C -8,5 C 85 % 0 % 996 hPa 0,0 l/m 4,8 km/h (1 Bft)
19.12.2009 01:27 21,7 C -7,7 C -8,3 C 85 % 0 % 996 hPa 0,0 l/m 1,2 km/h (1 Bft)
19.12.2009 01:30 21,7 C -7,7 C -8,2 C 85 % 0 % 996 hPa 0,0 l/m 1,2 km/h (1 Bft)
19.12.2009 01:33 21,7 C -7,7 C -8,1 C 85 % 0 % 996 hPa 0,0 l/m 3,9 km/h (1 Bft)
19.12.2009 01:36 21,7 C -7,7 C -8,0 C 85 % 0 % 996 hPa 0,0 l/m 0,3 km/h (0 Bft)
19.12.2009 01:39 21,7 C -7,7 C -8,0 C 85 % 0 % 996 hPa 0,0 l/m 2,7 km/h (1 Bft)
19.12.2009 01:42 21,7 C -7,6 C -8,2 C 85 % 0 % 996 hPa 0,0 l/m 0,1 km/h (0 Bft)
19.12.2009 01:45 21,7 C -7,6 C -8,1 C 85 % 0 % 996 hPa 0,0 l/m 0,1 km/h (0 Bft)
19.12.2009 01:48 21,7 C -7,6 C -7,7 C 85 % 0 % 996 hPa 0,0 l/m 0,0 km/h (0 Bft)
19.12.2009 01:51 21,7 C -7,6 C -7,2 C 85 % 0 % 996 hPa 0,0 l/m 0,3 km/h (0 Bft)
19.12.2009 01:54 21,7 C -7,7 C -7,6 C 85 % 0 % 996 hPa 0,0 l/m 0,0 km/h (0 Bft)
19.12.2009 01:57 21,7 C -7,7 C -7,8 C 85 % 0 % 996 hPa 0,0 l/m 0,1 km/h (0 Bft)
19.12.2009 02:00 21,7 C -7,7 C -7,4 C 85 % 0 % 996 hPa 0,0 l/m 0,0 km/h (0 Bft)
19.12.2009 02:03 21,7 C -7,7 C -7,5 C 85 % 0 % 996 hPa 0,0 l/m 0,1 km/h (0 Bft)
19.12.2009 02:06 21,6 C -7,8 C -7,8 C 85 % 0 % 996 hPa 0,0 l/m 0,1 km/h (0 Bft)
19.12.2009 02:09 21,7 C -7,8 C -8,0 C 85 % 0 % 996 hPa 0,0 l/m 0,3 km/h (0 Bft)
19.12.2009 02:12 21,7 C -7,8 C -8,1 C 85 % 0 % 996 hPa 0,0 l/m 2,5 km/h (1 Bft)
19.12.2009 02:15 21,6 C -7,8 C -7,9 C 85 % 0 % 996 hPa 0,0 l/m 5,0 km/h (1 Bft)
19.12.2009 02:18 21,7 C -7,8 C -7,9 C 85 % 0 % 996 hPa 0,0 l/m 1,0 km/h (0 Bft)
19.12.2009 02:21 21,7 C -7,8 C -8,0 C 85 % 0 % 996 hPa 0,0 l/m 9,7 km/h (2 Bft)
19.12.2009 02:24 21,7 C -7,8 C -8,0 C 86 % 0 % 996 hPa 0,0 l/m 7,7 km/h (2 Bft)
19.12.2009 02:27 21,8 C -7,8 C -8,1 C 86 % 0 % 996 hPa 0,0 l/m 7,7 km/h (2 Bft)
19.12.2009 02:30 21,8 C -7,8 C -8,1 C 86 % 0 % 996 hPa 0,0 l/m 6,5 km/h (2 Bft)
19.12.2009 02:33 21,8 C -7,8 C -8,4 C 86 % 0 % 996 hPa 0,0 l/m 6,9 km/h (2 Bft)
19.12.2009 02:36 21,8 C -7,8 C -8,3 C 86 % 0 % 996 hPa 0,0 l/m 6,8 km/h (2 Bft)
19.12.2009 02:39 21,9 C -7,7 C -8,2 C 86 % 0 % 996 hPa 0,0 l/m 5,2 km/h (1 Bft)
19.12.2009 02:42 21,9 C -7,7 C -8,2 C 86 % 0 % 996 hPa 0,0 l/m 5,0 km/h (1 Bft)
19.12.2009 02:45 22,0 C -7,7 C -8,1 C 86 % 0 % 996 hPa 0,0 l/m 0,6 km/h (0 Bft)
19.12.2009 02:48 22,0 C -7,8 C -8,3 C 86 % 0 % 996 hPa 0,0 l/m 3,1 km/h (1 Bft)
19.12.2009 02:51 22,1 C -7,8 C -8,4 C 86 % 0 % 996 hPa 0,0 l/m 3,7 km/h (1 Bft)
19.12.2009 02:55 22,0 C -7,8 C -8,3 C 86 % 0 % 996 hPa 0,0 l/m 2,2 km/h (1 Bft)
19.12.2009 02:58 22,1 C -7,7 C -8,2 C 86 % 0 % 996 hPa 0,0 l/m 0,3 km/h (0 Bft)
19.12.2009 03:01 22,1 C -7,7 C -8,2 C 86 % 0 % 996 hPa 0,0 l/m 0,3 km/h (0 Bft)
19.12.2009 03:04 22,1 C -7,7 C -8,2 C 86 % 0 % 996 hPa 0,0 l/m 0,3 km/h (0 Bft)
19.12.2009 03:07 22,1 C -7,7 C -8,2 C 86 % 0 % 996 hPa 0,0 l/m 0,3 km/h (0 Bft)
19.12.2009 03:10 22,1 C -7,7 C -8,2 C 86 % 0 % 996 hPa 0,0 l/m 0,3 km/h (0 Bft)
19.12.2009 03:13 22,1 C -7,7 C -8,2 C 86 % 0 % 996 hPa 0,0 l/m 0,3 km/h (0 Bft)
19.12.2009 03:16 22,1 C -7,7 C -8,2 C 86 % 0 % 996 hPa 0,0 l/m 0,3 km/h (0 Bft)
19.12.2009 03:19 22,1 C -7,8 C -8,2 C 85 % 0 % 996 hPa 0,0 l/m 0,3 km/h (0 Bft)
19.12.2009 03:22 22,1 C -7,8 C -8,2 C 85 % 0 % 996 hPa 0,0 l/m 0,3 km/h (0 Bft)
19.12.2009 03:25 22,1 C -7,8 C -8,2 C 85 % 0 % 996 hPa 0,0 l/m 0,3 km/h (0 Bft)
19.12.2009 03:28 22,1 C -7,8 C -8,2 C 85 % 0 % 996 hPa 0,0 l/m 0,3 km/h (0 Bft)
19.12.2009 03:31 22,1 C -7,9 C -8,2 C 85 % 0 % 996 hPa 0,0 l/m 0,3 km/h (0 Bft)
19.12.2009 03:34 22,1 C -7,9 C -7,7 C 85 % 0 % 996 hPa 0,0 l/m 0,3 km/h (0 Bft)
19.12.2009 03:37 22,1 C -7,9 C -7,6 C 85 % 0 % 996 hPa 0,0 l/m 0,3 km/h (0 Bft)
19.12.2009 03:40 22,1 C -7,9 C -7,4 C 85 % 0 % 996 hPa 0,0 l/m 0,3 km/h (0 Bft)
19.12.2009 03:43 22,1 C -7,9 C -7,7 C 85 % 0 % 996 hPa 0,0 l/m 0,3 km/h (0 Bft)
19.12.2009 03:46 22,1 C -7,9 C -7,9 C 85 % 0 % 996 hPa 0,0 l/m 0,0 km/h (0 Bft)
19.12.2009 03:49 22,1 C -8,2 C -7,9 C 85 % 0 % 996 hPa 0,0 l/m 0,0 km/h (0 Bft)
19.12.2009 03:52 21,8 C -8,2 C -7,9 C 85 % 0 % 996 hPa 0,0 l/m 0,0 km/h (0 Bft)
19.12.2009 03:55 21,8 C -8,2 C -7,6 C 85 % 0 % 996 hPa 0,0 l/m 0,0 km/h (0 Bft)
19.12.2009 03:58 21,8 C -8,2 C -7,3 C 85 % 0 % 996 hPa 0,0 l/m 0,0 km/h (0 Bft)
19.12.2009 04:01 21,8 C -8,2 C -7,0 C 85 % 0 % 996 hPa 0,0 l/m 0,0 km/h (0 Bft)
19.12.2009 04:04 21,8 C -8,2 C -7,1 C 85 % 0 % 996 hPa 0,0 l/m 0,0 km/h (0 Bft)
19.12.2009 04:07 21,8 C -8,2 C -7,3 C 85 % 0 % 996 hPa 0,0 l/m 0,0 km/h (0 Bft)
19.12.2009 04:10 21,8 C -8,2 C -7,4 C 85 % 0 % 996 hPa 0,0 l/m 0,0 km/h (0 Bft)
19.12.2009 04:13 21,8 C -8,2 C -7,7 C 86 % 0 % 996 hPa 0,0 l/m 0,0 km/h (0 Bft)
19.12.2009 04:16 21,8 C -8,2 C -7,7 C 86 % 0 % 996 hPa 0,0 l/m 0,0 km/h (0 Bft)
19.12.2009 04:19 21,8 C -8,3 C -7,9 C 86 % 0 % 996 hPa 0,0 l/m 0,0 km/h (0 Bft)
19.12.2009 04:22 21,8 C -8,3 C -7,9 C 86 % 0 % 996 hPa 0,0 l/m 0,0 km/h (0 Bft)
19.12.2009 04:25 21,8 C -8,3 C -7,9 C 86 % 0 % 996 hPa 0,0 l/m 0,0 km/h (0 Bft)
19.12.2009 04:28 21,8 C -8,3 C -7,9 C 86 % 0 % 996 hPa 0,0 l/m 0,0 km/h (0 Bft)
19.12.2009 04:31 21,8 C -8,3 C -7,9 C 86 % 0 % 996 hPa 0,0 l/m 0,0 km/h (0 Bft)
19.12.2009 04:34 21,8 C -8,5 C -8,0 C 86 % 0 % 996 hPa 0,0 l/m 0,0 km/h (0 Bft)
19.12.2009 04:37 21,8 C -8,5 C -8,1 C 86 % 0 % 996 hPa 0,0 l/m 0,0 km/h (0 Bft)
19.12.2009 04:40 21,8 C -8,5 C -7,9 C 86 % 0 % 996 hPa 0,0 l/m 0,0 km/h (0 Bft)
19.12.2009 04:43 21,8 C -8,5 C -7,9 C 86 % 0 % 996 hPa 0,0 l/m 0,0 km/h (0 Bft)
19.12.2009 04:46 21,8 C -8,5 C -8,2 C 86 % 0 % 996 hPa 0,0 l/m 0,0 km/h (0 Bft)
19.12.2009 04:49 21,8 C -8,5 C -8,2 C 86 % 0 % 996 hPa 0,0 l/m 0,0 km/h (0 Bft)
19.12.2009 04:52 21,7 C -8,5 C -8,2 C 86 % 0 % 996 hPa 0,0 l/m 0,0 km/h (0 Bft)
19.12.2009 04:55 21,8 C -8,5 C -8,5 C 86 % 0 % 996 hPa 0,0 l/m 0,0 km/h (0 Bft)
19.12.2009 04:58 21,8 C -8,5 C -8,3 C 86 % 0 % 996 hPa 0,0 l/m 0,0 km/h (0 Bft)
19.12.2009 05:01 21,7 C -8,6 C -8,4 C 86 % 0 % 996 hPa 0,0 l/m 0,0 km/h (0 Bft)
19.12.2009 05:04 21,8 C -8,6 C -8,2 C 86 % 0 % 996 hPa 0,0 l/m 0,0 km/h (0 Bft)
19.12.2009 05:07 21,8 C -8,6 C -8,3 C 86 % 0 % 996 hPa 0,0 l/m 0,0 km/h (0 Bft)
19.12.2009 05:10 21,8 C -8,6 C -8,3 C 86 % 0 % 996 hPa 0,0 l/m 0,0 km/h (0 Bft)
19.12.2009 05:13 21,8 C -8,6 C -8,1 C 85 % 0 % 996 hPa 0,0 l/m 0,0 km/h (0 Bft)
19.12.2009 05:16 21,8 C -8,6 C -8,0 C 85 % 0 % 996 hPa 0,0 l/m 0,0 km/h (0 Bft)
19.12.2009 05:19 21,8 C -8,6 C -8,0 C 85 % 0 % 996 hPa 0,0 l/m 0,0 km/h (0 Bft)
19.12.2009 05:22 21,7 C -8,6 C -7,9 C 85 % 0 % 996 hPa 0,0 l/m 0,0 km/h (0 Bft)
19.12.2009 05:25 21,7 C -8,5 C -8,2 C 86 % 0 % 996 hPa 0,0 l/m 0,0 km/h (0 Bft)
19.12.2009 05:28 21,7 C -8,5 C -8,1 C 86 % 0 % 996 hPa 0,0 l/m 0,0 km/h (0 Bft)
19.12.2009 05:31 21,7 C -8,5 C -8,5 C 86 % 0 % 996 hPa 0,0 l/m 0,0 km/h (0 Bft)
19.12.2009 05:34 21,7 C -8,5 C -8,5 C 86 % 0 % 996 hPa 0,0 l/m 0,0 km/h (0 Bft)
19.12.2009 05:37 21,7 C -8,5 C -7,8 C 86 % 0 % 996 hPa 0,0 l/m 0,0 km/h (0 Bft)
19.12.2009 05:40 21,7 C -8,5 C -7,2 C 86 % 0 % 996 hPa 0,0 l/m 0,0 km/h (0 Bft)
19.12.2009 05:43 21,7 C -8,5 C -7,2 C 86 % 0 % 996 hPa 0,0 l/m 0,0 km/h (0 Bft)
19.12.2009 05:46 21,7 C -8,5 C -7,2 C 86 % 0 % 996 hPa 0,0 l/m 0,0 km/h (0 Bft)
19.12.2009 05:49 21,7 C -8,5 C -7,5 C 86 % 0 % 996 hPa 0,0 l/m 0,0 km/h (0 Bft)
19.12.2009 05:52 21,7 C -8,5 C -7,5 C 86 % 0 % 996 hPa 0,0 l/m 0,0 km/h (0 Bft)
19.12.2009 05:55 21,8 C -8,5 C -7,3 C 86 % 0 % 996 hPa 0,0 l/m 0,0 km/h (0 Bft)
19.12.2009 05:58 21,8 C -8,5 C -7,6 C 86 % 0 % 996 hPa 0,0 l/m 0,0 km/h (0 Bft)
19.12.2009 06:01 21,8 C -8,5 C -7,8 C 86 % 0 % 996 hPa 0,0 l/m 0,0 km/h (0 Bft)
19.12.2009 06:04 21,8 C -8,5 C -7,8 C 86 % 0 % 996 hPa 0,0 l/m 0,0 km/h (0 Bft)
19.12.2009 06:07 21,8 C -8,5 C -7,9 C 86 % 0 % 996 hPa 0,0 l/m 0,0 km/h (0 Bft)
19.12.2009 06:10 21,7 C -8,5 C -8,2 C 86 % 0 % 996 hPa 0,0 l/m 0,1 km/h (0 Bft)
19.12.2009 06:13 21,7 C -8,5 C -8,2 C 86 % 0 % 996 hPa 0,0 l/m 9,0 km/h (2 Bft)
19.12.2009 06:16 21,7 C -8,5 C -8,2 C 86 % 0 % 996 hPa 0,0 l/m 5,9 km/h (2 Bft)
19.12.2009 06:19 21,7 C -8,0 C -8,3 C 86 % 0 % 996 hPa 0,0 l/m 3,5 km/h (1 Bft)
19.12.2009 06:22 21,7 C -7,9 C -8,4 C 86 % 0 % 996 hPa 0,0 l/m 7,2 km/h (2 Bft)
19.12.2009 06:25 21,7 C -7,9 C -8,4 C 86 % 0 % 996 hPa 0,0 l/m 7,2 km/h (2 Bft)
19.12.2009 06:28 21,7 C -7,9 C -8,4 C 86 % 0 % 996 hPa 0,0 l/m 5,5 km/h (1 Bft)
19.12.2009 06:31 21,7 C -7,9 C -8,3 C 87 % 0 % 996 hPa 0,0 l/m 5,2 km/h (1 Bft)
19.12.2009 06:34 21,7 C -7,9 C -8,2 C 87 % 0 % 996 hPa 0,0 l/m 4,8 km/h (1 Bft)
19.12.2009 06:37 21,7 C -7,8 C -8,1 C 87 % 0 % 996 hPa 0,0 l/m 3,8 km/h (1 Bft)
19.12.2009 06:40 21,7 C -7,8 C -8,1 C 87 % 0 % 996 hPa 0,0 l/m 1,6 km/h (1 Bft)
19.12.2009 06:43 21,7 C -7,9 C -8,1 C 86 % 0 % 996 hPa 0,0 l/m 4,2 km/h (1 Bft)
19.12.2009 06:46 21,7 C -7,9 C -8,2 C 87 % 0 % 996 hPa 0,0 l/m 4,0 km/h (1 Bft)
19.12.2009 06:49 21,7 C -7,9 C -8,2 C 87 % 0 % 996 hPa 0,0 l/m 4,5 km/h (1 Bft)
19.12.2009 06:52 21,7 C -7,8 C -8,3 C 87 % 0 % 996 hPa 0,0 l/m 2,9 km/h (1 Bft)
19.12.2009 06:55 21,8 C -7,8 C -7,9 C 87 % 0 % 996 hPa 0,0 l/m 0,7 km/h (0 Bft)
19.12.2009 06:58 21,7 C -7,9 C -7,9 C 86 % 0 % 996 hPa 0,0 l/m 2,6 km/h (1 Bft)
19.12.2009 07:01 21,7 C -7,9 C -8,0 C 86 % 0 % 996 hPa 0,0 l/m 0,8 km/h (0 Bft)
19.12.2009 07:04 21,7 C -7,9 C -8,1 C 86 % 0 % 996 hPa 0,0 l/m 0,6 km/h (0 Bft)
19.12.2009 07:07 21,7 C -7,8 C -8,2 C 86 % 0 % 996 hPa 0,0 l/m 1,3 km/h (1 Bft)
19.12.2009 07:10 21,7 C -7,8 C -8,2 C 86 % 0 % 996 hPa 0,0 l/m 2,1 km/h (1 Bft)
19.12.2009 07:13 21,7 C -7,8 C -7,9 C 86 % 0 % 996 hPa 0,0 l/m 0,0 km/h (0 Bft)
19.12.2009 07:16 21,7 C -7,8 C -7,9 C 86 % 0 % 996 hPa 0,0 l/m 0,0 km/h (0 Bft)
19.12.2009 07:19 21,7 C -7,8 C -7,6 C 86 % 0 % 996 hPa 0,0 l/m 0,0 km/h (0 Bft)
19.12.2009 07:22 21,7 C -7,8 C -7,7 C 86 % 0 % 996 hPa 0,0 l/m 0,0 km/h (0 Bft)
19.12.2009 07:25 21,7 C -7,8 C -7,7 C 86 % 0 % 996 hPa 0,0 l/m 0,0 km/h (0 Bft)
19.12.2009 07:28 21,7 C -7,8 C -7,7 C 86 % 0 % 996 hPa 0,0 l/m 0,0 km/h (0 Bft)
19.12.2009 07:31 21,7 C -7,8 C -7,7 C 86 % 0 % 996 hPa 0,0 l/m 0,0 km/h (0 Bft)
19.12.2009 07:34 21,7 C -7,8 C -7,7 C 86 % 0 % 996 hPa 0,0 l/m 0,1 km/h (0 Bft)
19.12.2009 07:37 21,7 C -7,7 C -7,8 C 86 % 0 % 996 hPa 0,0 l/m 0,1 km/h (0 Bft)
19.12.2009 07:40 21,8 C -7,7 C -7,5 C 86 % 0 % 996 hPa 0,0 l/m 0,2 km/h (0 Bft)
19.12.2009 07:43 21,7 C -7,7 C -7,6 C 86 % 0 % 996 hPa 0,0 l/m 0,4 km/h (0 Bft)
19.12.2009 07:46 21,7 C -7,7 C -7,6 C 86 % 0 % 996 hPa 0,0 l/m 2,2 km/h (1 Bft)
19.12.2009 07:49 21,7 C -7,7 C -8,0 C 86 % 0 % 996 hPa 0,0 l/m 4,6 km/h (1 Bft)
19.12.2009 07:52 21,7 C -7,7 C -8,0 C 86 % 0 % 996 hPa 0,0 l/m 5,9 km/h (2 Bft)
19.12.2009 07:55 21,7 C -7,7 C -7,8 C 86 % 0 % 996 hPa 0,0 l/m 5,9 km/h (2 Bft)
19.12.2009 07:58 21,7 C -7,5 C -7,9 C 86 % 0 % 996 hPa 0,0 l/m 4,2 km/h (1 Bft)
19.12.2009 08:01 21,8 C -7,5 C -7,9 C 86 % 0 % 996 hPa 0,0 l/m 6,4 km/h (2 Bft)
19.12.2009 08:04 21,8 C -7,5 C -7,9 C 87 % 0 % 996 hPa 0,0 l/m 6,7 km/h (2 Bft)
19.12.2009 08:07 21,9 C -7,5 C -8,0 C 87 % 0 % 996 hPa 0,0 l/m 6,7 km/h (2 Bft)
19.12.2009 08:10 21,9 C -7,5 C -8,0 C 87 % 0 % 996 hPa 0,0 l/m 7,9 km/h (2 Bft)
19.12.2009 08:13 22,0 C -7,5 C -7,8 C 87 % 0 % 996 hPa 0,0 l/m 5,8 km/h (2 Bft)
19.12.2009 08:16 22,0 C -7,5 C -7,8 C 87 % 0 % 996 hPa 0,0 l/m 7,9 km/h (2 Bft)
19.12.2009 08:19 22,0 C -7,5 C -7,9 C 87 % 0 % 996 hPa 0,0 l/m 7,9 km/h (2 Bft)
19.12.2009 08:22 22,1 C -7,5 C -7,9 C 87 % 0 % 996 hPa 0,0 l/m 5,6 km/h (1 Bft)
19.12.2009 08:25 22,1 C -7,5 C -7,9 C 87 % 0 % 996 hPa 0,0 l/m 3,9 km/h (1 Bft)
19.12.2009 08:28 22,2 C -7,5 C -7,7 C 87 % 0 % 996 hPa 0,0 l/m 4,6 km/h (1 Bft)
19.12.2009 08:31 22,2 C -7,5 C -7,7 C 87 % 0 % 996 hPa 0,0 l/m 5,2 km/h (1 Bft)
19.12.2009 08:34 22,2 C -7,5 C -7,5 C 87 % 0 % 996 hPa 0,0 l/m 6,3 km/h (2 Bft)
19.12.2009 08:37 22,3 C -7,6 C -7,6 C 87 % 0 % 996 hPa 0,0 l/m 7,7 km/h (2 Bft)
19.12.2009 08:40 22,2 C -7,5 C -7,7 C 87 % 0 % 996 hPa 0,0 l/m 5,9 km/h (2 Bft)
19.12.2009 08:43 22,2 C -7,5 C -7,6 C 87 % 0 % 996 hPa 0,0 l/m 5,6 km/h (1 Bft)
19.12.2009 08:46 22,2 C -7,5 C -7,3 C 87 % 0 % 996 hPa 0,0 l/m 6,1 km/h (2 Bft)
19.12.2009 08:49 22,1 C -7,5 C -7,2 C 87 % 0 % 996 hPa 0,0 l/m 7,3 km/h (2 Bft)
19.12.2009 08:52 22,0 C -7,5 C -7,2 C 87 % 0 % 996 hPa 0,0 l/m 4,0 km/h (1 Bft)
19.12.2009 08:55 22,0 C -7,5 C -7,0 C 87 % 0 % 996 hPa 0,0 l/m 2,8 km/h (1 Bft)
19.12.2009 08:58 22,0 C -7,5 C -7,0 C 86 % 0 % 996 hPa 0,0 l/m 1,8 km/h (1 Bft)
19.12.2009 09:01 22,0 C -7,5 C -7,0 C 86 % 0 % 996 hPa 0,0 l/m 1,8 km/h (1 Bft)
19.12.2009 09:04 22,0 C -7,5 C -7,2 C 86 % 0 % 996 hPa 0,0 l/m 1,8 km/h (1 Bft)
19.12.2009 09:07 22,0 C -7,5 C -6,8 C 86 % 0 % 997 hPa 0,0 l/m 0,6 km/h (0 Bft)
19.12.2009 09:10 22,0 C -7,5 C -7,4 C 86 % 0 % 997 hPa 0,0 l/m 5,3 km/h (1 Bft)
19.12.2009 09:13 22,0 C -7,5 C -7,6 C 86 % 0 % 997 hPa 0,0 l/m 6,6 km/h (2 Bft)
19.12.2009 09:16 22,1 C -7,5 C -7,6 C 86 % 0 % 997 hPa 0,0 l/m 6,9 km/h (2 Bft)
19.12.2009 09:19 22,0 C -7,5 C -7,4 C 86 % 0 % 997 hPa 0,0 l/m 8,9 km/h (2 Bft)
19.12.2009 09:22 22,0 C -7,5 C -6,9 C 86 % 0 % 997 hPa 0,0 l/m 5,4 km/h (1 Bft)
19.12.2009 09:25 22,0 C -7,5 C -6,8 C 86 % 0 % 997 hPa 0,0 l/m 1,3 km/h (1 Bft)
19.12.2009 09:28 22,0 C -7,5 C -6,5 C 86 % 0 % 997 hPa 0,0 l/m 0,6 km/h (0 Bft)
19.12.2009 09:31 22,0 C -7,5 C -6,3 C 86 % 0 % 997 hPa 0,0 l/m 0,2 km/h (0 Bft)
19.12.2009 09:34 22,0 C -7,5 C -6,3 C 86 % 0 % 997 hPa 0,0 l/m 0,1 km/h (0 Bft)
19.12.2009 09:37 22,0 C -7,5 C -6,0 C 86 % 0 % 997 hPa 0,0 l/m 0,1 km/h (0 Bft)
19.12.2009 09:40 21,9 C -7,2 C -5,7 C 86 % 0 % 997 hPa 0,0 l/m 0,0 km/h (0 Bft)
19.12.2009 09:43 21,9 C -7,2 C -5,3 C 86 % 0 % 997 hPa 0,0 l/m 0,0 km/h (0 Bft)
19.12.2009 09:46 21,9 C -7,2 C -5,6 C 86 % 0 % 997 hPa 0,0 l/m 0,0 km/h (0 Bft)
19.12.2009 09:49 21,9 C -7,2 C -5,1 C 86 % 0 % 997 hPa 0,0 l/m 0,0 km/h (0 Bft)
19.12.2009 09:52 21,1 C -7,1 C -5,6 C 86 % 0 % 997 hPa 0,0 l/m 0,3 km/h (0 Bft)
19.12.2009 09:55 21,1 C -7,1 C -5,6 C 86 % 0 % 997 hPa 0,0 l/m 0,1 km/h (0 Bft)
19.12.2009 09:58 18,5 C -7,0 C -5,5 C 86 % 0 % 997 hPa 0,0 l/m 0,2 km/h (0 Bft)
19.12.2009 10:01 18,7 C -7,0 C -5,6 C 86 % 0 % 997 hPa 0,0 l/m 2,4 km/h (1 Bft)
19.12.2009 10:04 19,2 C -7,0 C -5,6 C 86 % 0 % 997 hPa 0,0 l/m 0,0 km/h (0 Bft)
19.12.2009 10:07 19,9 C -7,0 C -5,5 C 86 % 0 % 997 hPa 0,0 l/m 0,0 km/h (0 Bft)
19.12.2009 10:10 20,2 C -7,0 C -5,9 C 86 % 0 % 997 hPa 0,0 l/m 0,1 km/h (0 Bft)
19.12.2009 10:13 20,4 C -6,7 C -6,0 C 86 % 0 % 997 hPa 0,0 l/m 0,4 km/h (0 Bft)
19.12.2009 10:16 20,6 C -6,7 C -6,2 C 86 % 0 % 997 hPa 0,0 l/m 0,4 km/h (0 Bft)
19.12.2009 10:19 20,8 C -6,7 C -6,2 C 85 % 0 % 997 hPa 0,0 l/m 0,1 km/h (0 Bft)
19.12.2009 10:22 20,8 C -6,7 C -5,7 C 85 % 0 % 997 hPa 0,0 l/m 0,3 km/h (0 Bft)
19.12.2009 10:25 21,0 C -6,7 C -6,0 C 85 % 0 % 997 hPa 0,0 l/m 1,9 km/h (1 Bft)
19.12.2009 10:28 21,0 C -6,7 C -6,0 C 85 % 0 % 997 hPa 0,0 l/m 1,2 km/h (1 Bft)
19.12.2009 10:31 21,0 C -6,7 C -5,7 C 85 % 0 % 997 hPa 0,0 l/m 0,0 km/h (0 Bft)
19.12.2009 10:34 21,1 C -6,7 C -5,3 C 85 % 0 % 997 hPa 0,0 l/m 0,0 km/h (0 Bft)
19.12.2009 10:37 21,1 C -6,5 C -5,0 C 84 % 0 % 997 hPa 0,0 l/m 0,0 km/h (0 Bft)
19.12.2009 10:40 21,2 C -6,5 C -4,8 C 84 % 0 % 997 hPa 0,0 l/m 0,0 km/h (0 Bft)
19.12.2009 10:43 21,2 C -6,3 C -4,9 C 84 % 0 % 997 hPa 0,0 l/m 0,0 km/h (0 Bft)
19.12.2009 10:46 21,2 C -6,3 C -5,2 C 84 % 0 % 997 hPa 0,0 l/m 0,7 km/h (0 Bft)
19.12.2009 10:49 21,2 C -6,3 C -5,7 C 84 % 0 % 997 hPa 0,0 l/m 0,6 km/h (0 Bft)
19.12.2009 10:52 21,2 C -6,3 C -5,4 C 84 % 0 % 997 hPa 0,0 l/m 4,8 km/h (1 Bft)
19.12.2009 10:55 21,2 C -6,3 C -5,8 C 84 % 0 % 997 hPa 0,0 l/m 2,9 km/h (1 Bft)
19.12.2009 10:58 21,2 C -6,3 C -5,8 C 84 % 0 % 997 hPa 0,0 l/m 1,2 km/h (1 Bft)
19.12.2009 11:01 21,2 C -6,3 C -5,8 C 84 % 0 % 997 hPa 0,0 l/m 2,1 km/h (1 Bft)
19.12.2009 11:04 21,2 C -6,3 C -6,3 C 84 % 0 % 996 hPa 0,0 l/m 2,4 km/h (1 Bft)
19.12.2009 11:07 21,2 C -6,3 C -6,3 C 84 % 0 % 996 hPa 0,0 l/m 2,2 km/h (1 Bft)
19.12.2009 11:10 21,3 C -6,3 C -6,4 C 84 % 0 % 996 hPa 0,0 l/m 2,2 km/h (1 Bft)
19.12.2009 11:13 21,2 C -6,3 C -6,1 C 84 % 0 % 996 hPa 0,0 l/m 0,4 km/h (0 Bft)
19.12.2009 11:16 21,2 C -6,4 C -5,9 C 83 % 0 % 996 hPa 0,0 l/m 0,1 km/h (0 Bft)
19.12.2009 11:19 21,3 C -6,4 C -5,7 C 83 % 0 % 996 hPa 0,0 l/m 2,7 km/h (1 Bft)
19.12.2009 11:22 21,3 C -6,5 C -5,6 C 83 % 0 % 996 hPa 0,0 l/m 0,1 km/h (0 Bft)
19.12.2009 11:25 21,4 C -6,5 C -5,4 C 83 % 0 % 996 hPa 0,0 l/m 0,0 km/h (0 Bft)
19.12.2009 11:28 21,4 C -6,5 C -5,4 C 83 % 0 % 996 hPa 0,0 l/m 0,0 km/h (0 Bft)
19.12.2009 11:31 21,5 C -6,5 C -5,7 C 83 % 0 % 996 hPa 0,0 l/m 0,2 km/h (0 Bft)
19.12.2009 11:34 21,5 C -6,5 C -5,4 C 83 % 0 % 996 hPa 0,3 l/m 0,0 km/h (0 Bft)
19.12.2009 11:37 21,6 C -6,4 C -5,1 C 83 % 0 % 996 hPa 0,0 l/m 0,0 km/h (0 Bft)
19.12.2009 11:40 21,7 C -6,4 C -5,0 C 83 % 0 % 996 hPa 0,0 l/m 0,0 km/h (0 Bft)
19.12.2009 11:43 21,8 C -6,4 C -5,3 C 83 % 0 % 996 hPa 0,0 l/m 0,1 km/h (0 Bft)
19.12.2009 11:46 21,8 C -6,3 C -5,3 C 83 % 0 % 996 hPa 0,0 l/m 0,1 km/h (0 Bft)
19.12.2009 11:49 21,9 C -6,4 C -5,2 C 83 % 0 % 996 hPa 0,0 l/m 0,6 km/h (0 Bft)
19.12.2009 11:52 21,9 C -6,3 C -5,2 C 83 % 0 % 996 hPa 0,0 l/m 0,7 km/h (0 Bft)
19.12.2009 11:55 21,9 C -6,3 C -4,7 C 83 % 0 % 996 hPa 0,0 l/m 0,3 km/h (0 Bft)
19.12.2009 11:58 21,9 C -6,3 C -4,7 C 83 % 0 % 996 hPa 0,0 l/m 1,2 km/h (1 Bft)
19.12.2009 12:01 21,9 C -6,3 C -5,5 C 83 % 0 % 996 hPa 0,0 l/m 2,2 km/h (1 Bft)
19.12.2009 12:04 21,7 C -6,3 C -5,8 C 83 % 0 % 996 hPa 0,0 l/m 2,2 km/h (1 Bft)
19.12.2009 12:07 21,7 C -6,3 C -5,3 C 83 % 0 % 996 hPa 0,0 l/m 0,0 km/h (0 Bft)
19.12.2009 12:10 21,8 C -6,2 C -4,9 C 83 % 0 % 996 hPa 0,0 l/m 0,0 km/h (0 Bft)
19.12.2009 12:13 21,8 C -6,2 C -4,6 C 83 % 0 % 996 hPa 0,0 l/m 0,0 km/h (0 Bft)
19.12.2009 12:16 21,7 C -6,2 C -4,6 C 83 % 0 % 996 hPa 0,0 l/m 0,0 km/h (0 Bft)
19.12.2009 12:19 21,6 C -6,2 C -5,0 C 83 % 0 % 996 hPa 0,0 l/m 0,0 km/h (0 Bft)
19.12.2009 12:22 21,0 C -6,2 C -5,0 C 83 % 0 % 996 hPa 0,0 l/m 0,0 km/h (0 Bft)
19.12.2009 12:25 19,0 C -6,2 C -5,0 C 83 % 0 % 996 hPa 0,0 l/m 0,6 km/h (0 Bft)
19.12.2009 12:28 17,2 C -6,2 C -5,2 C 83 % 0 % 996 hPa 0,0 l/m 2,3 km/h (1 Bft)
19.12.2009 12:31 15,8 C -6,2 C -5,4 C 83 % 0 % 996 hPa 0,0 l/m 1,2 km/h (1 Bft)
19.12.2009 12:34 15,2 C -5,9 C -5,1 C 83 % 0 % 996 hPa 0,0 l/m 0,2 km/h (0 Bft)
19.12.2009 12:37 16,0 C -5,9 C -4,9 C 83 % 0 % 996 hPa 0,0 l/m 0,0 km/h (0 Bft)
19.12.2009 12:40 16,9 C -5,9 C -4,6 C 82 % 0 % 996 hPa 0,0 l/m 0,0 km/h (0 Bft)
19.12.2009 12:43 18,5 C -5,9 C -4,4 C 82 % 0 % 996 hPa 0,0 l/m 0,0 km/h (0 Bft)
19.12.2009 12:46 19,0 C -5,9 C -3,6 C 82 % 0 % 996 hPa 0,0 l/m 0,0 km/h (0 Bft)
19.12.2009 12:49 19,4 C -5,9 C -3,1 C 82 % 0 % 996 hPa 0,0 l/m 0,1 km/h (0 Bft)
19.12.2009 12:52 19,7 C -5,9 C -2,9 C 82 % 0 % 996 hPa 0,3 l/m 0,0 km/h (0 Bft)
19.12.2009 12:55 20,0 C -5,9 C -3,0 C 82 % 0 % 996 hPa 0,0 l/m 0,0 km/h (0 Bft)
19.12.2009 12:58 20,2 C -5,9 C -2,9 C 82 % 0 % 996 hPa 0,0 l/m 0,0 km/h (0 Bft)
19.12.2009 13:01 20,2 C -5,9 C -3,0 C 82 % 0 % 996 hPa 0,0 l/m 0,0 km/h (0 Bft)
19.12.2009 13:04 20,4 C -5,9 C -3,3 C 82 % 0 % 996 hPa 0,0 l/m 0,0 km/h (0 Bft)
19.12.2009 13:07 20,5 C -5,8 C -3,4 C 82 % 0 % 996 hPa 0,0 l/m 0,0 km/h (0 Bft)
19.12.2009 13:10 20,6 C -5,8 C -4,8 C 82 % 0 % 996 hPa 0,0 l/m 0,3 km/h (0 Bft)
19.12.2009 13:13 20,7 C -5,8 C -5,0 C 82 % 0 % 996 hPa 0,0 l/m 0,0 km/h (0 Bft)
19.12.2009 13:16 20,8 C -5,8 C -4,9 C 82 % 0 % 996 hPa 0,0 l/m 0,0 km/h (0 Bft)
19.12.2009 13:19 20,8 C -5,7 C -4,8 C 82 % 0 % 996 hPa 0,0 l/m 0,0 km/h (0 Bft)
19.12.2009 13:22 20,9 C -5,7 C -4,5 C 82 % 0 % 996 hPa 0,0 l/m 0,0 km/h (0 Bft)
19.12.2009 13:25 20,9 C -5,8 C -3,7 C 82 % 0 % 996 hPa 0,0 l/m 0,0 km/h (0 Bft)
19.12.2009 13:28 20,9 C -5,8 C -4,0 C 82 % 0 % 996 hPa 0,0 l/m 0,0 km/h (0 Bft)
19.12.2009 13:31 20,9 C -5,8 C -3,9 C 82 % 0 % 996 hPa 0,0 l/m 10,9 km/h (2 Bft)
19.12.2009 13:34 21,0 C -5,8 C -4,2 C 82 % 0 % 996 hPa 0,0 l/m 10,9 km/h (2 Bft)
19.12.2009 13:37 21,0 C -6,6 C -4,7 C 80 % 0 % 996 hPa 0,0 l/m 8,3 km/h (2 Bft)
19.12.2009 13:40 21,0 C -6,6 C -4,7 C 80 % 0 % 996 hPa 0,0 l/m 5,1 km/h (1 Bft)
19.12.2009 13:43 21,0 C -6,6 C -4,5 C 80 % 0 % 996 hPa 0,0 l/m 6,7 km/h (2 Bft)
19.12.2009 13:46 21,0 C -6,6 C -4,2 C 80 % 0 % 996 hPa 0,0 l/m 5,4 km/h (1 Bft)
19.12.2009 13:49 21,0 C -6,6 C -4,4 C 80 % 0 % 996 hPa 0,0 l/m 6,6 km/h (2 Bft)
19.12.2009 13:52 21,0 C -7,2 C -4,4 C 82 % 0 % 996 hPa 0,0 l/m 5,4 km/h (1 Bft)
19.12.2009 13:55 21,0 C -7,2 C -3,9 C 82 % 0 % 996 hPa 0,0 l/m 4,8 km/h (1 Bft)
19.12.2009 13:58 21,0 C -7,3 C -3,9 C 82 % 0 % 996 hPa 0,0 l/m 1,2 km/h (1 Bft)
19.12.2009 14:01 21,0 C -7,3 C -4,3 C 82 % 0 % 996 hPa 0,0 l/m 6,3 km/h (2 Bft)
19.12.2009 14:04 21,1 C -7,3 C -4,3 C 81 % 0 % 996 hPa 0,0 l/m 8,1 km/h (2 Bft)
19.12.2009 14:07 21,1 C -7,4 C -4,5 C 81 % 0 % 996 hPa 0,0 l/m 5,6 km/h (1 Bft)
19.12.2009 14:10 21,1 C -7,4 C -4,4 C 81 % 0 % 996 hPa 0,0 l/m 7,4 km/h (2 Bft)
19.12.2009 14:13 21,1 C -7,4 C -4,5 C 81 % 0 % 996 hPa 0,0 l/m 12,0 km/h (2 Bft)
19.12.2009 14:16 21,1 C -7,4 C -4,6 C 81 % 0 % 996 hPa 0,0 l/m 10,8 km/h (2 Bft)
19.12.2009 14:19 21,2 C -7,4 C -4,7 C 81 % 0 % 996 hPa 0,0 l/m 10,5 km/h (2 Bft)
19.12.2009 14:22 21,2 C -7,4 C -4,9 C 81 % 0 % 996 hPa 0,0 l/m 10,1 km/h (2 Bft)
19.12.2009 14:25 21,2 C -7,4 C -5,3 C 81 % 0 % 996 hPa 0,0 l/m 10,1 km/h (2 Bft)
19.12.2009 14:28 21,2 C -7,4 C -5,3 C 81 % 0 % 996 hPa 0,0 l/m 10,7 km/h (2 Bft)
19.12.2009 14:31 21,2 C -7,4 C -5,0 C 81 % 0 % 996 hPa 0,0 l/m 11,1 km/h (2 Bft)
19.12.2009 14:34 21,2 C -7,6 C -4,7 C 82 % 0 % 996 hPa 0,0 l/m 7,5 km/h (2 Bft)
19.12.2009 14:37 21,2 C -7,5 C -4,5 C 82 % 0 % 996 hPa 0,0 l/m 7,3 km/h (2 Bft)
19.12.2009 14:40 21,2 C -7,5 C -4,2 C 82 % 0 % 996 hPa 0,0 l/m 1,2 km/h (1 Bft)
19.12.2009 14:43 21,2 C -7,5 C -4,6 C 82 % 0 % 996 hPa 0,0 l/m 1,2 km/h (1 Bft)
19.12.2009 14:46 21,2 C -7,5 C -4,4 C 82 % 0 % 996 hPa 0,0 l/m 1,5 km/h (1 Bft)
19.12.2009 14:49 21,2 C -7,5 C -4,6 C 82 % 0 % 996 hPa 0,0 l/m 5,2 km/h (1 Bft)
19.12.2009 14:52 21,2 C -7,5 C -4,7 C 81 % 0 % 996 hPa 0,0 l/m 5,2 km/h (1 Bft)
19.12.2009 14:55 21,2 C -7,5 C -4,8 C 81 % 0 % 996 hPa 0,0 l/m 6,2 km/h (2 Bft)
19.12.2009 14:58 21,2 C -7,5 C -5,0 C 81 % 0 % 996 hPa 0,0 l/m 9,6 km/h (2 Bft)
19.12.2009 15:01 19,2 C -7,5 C -4,9 C 81 % 0 % 996 hPa 0,0 l/m 10,6 km/h (2 Bft)
19.12.2009 15:04 18,8 C -7,5 C -4,6 C 81 % 0 % 996 hPa 0,0 l/m 7,1 km/h (2 Bft)
19.12.2009 15:07 19,0 C -7,5 C -5,0 C 81 % 0 % 996 hPa 0,0 l/m 6,1 km/h (2 Bft)
19.12.2009 15:10 19,4 C -7,6 C -4,9 C 81 % 0 % 996 hPa 0,0 l/m 7,8 km/h (2 Bft)
19.12.2009 15:13 19,8 C -7,6 C -5,1 C 81 % 0 % 996 hPa 0,0 l/m 4,2 km/h (1 Bft)
19.12.2009 15:16 20,0 C -7,6 C -5,1 C 81 % 0 % 996 hPa 0,0 l/m 8,0 km/h (2 Bft)
19.12.2009 15:19 20,3 C -7,6 C -5,2 C 81 % 0 % 996 hPa 0,0 l/m 7,7 km/h (2 Bft)
19.12.2009 15:22 20,6 C -7,7 C -5,5 C 81 % 0 % 996 hPa 0,0 l/m 7,7 km/h (2 Bft)
19.12.2009 15:25 20,7 C -7,8 C -6,0 C 81 % 0 % 996 hPa 0,0 l/m 11,1 km/h (2 Bft)
19.12.2009 15:28 20,7 C -7,8 C -5,6 C 81 % 0 % 996 hPa 0,0 l/m 8,9 km/h (2 Bft)
19.12.2009 15:31 20,6 C -7,9 C -6,1 C 81 % 0 % 996 hPa 0,0 l/m 8,9 km/h (2 Bft)
19.12.2009 15:34 20,6 C -7,9 C -6,1 C 81 % 0 % 996 hPa 0,0 l/m 11,2 km/h (2 Bft)
19.12.2009 15:37 20,7 C -7,9 C -5,9 C 81 % 0 % 996 hPa 0,0 l/m 11,1 km/h (2 Bft)
19.12.2009 15:40 20,7 C -8,0 C -6,0 C 81 % 0 % 996 hPa 0,0 l/m 12,6 km/h (3 Bft)
19.12.2009 15:43 20,7 C -8,1 C -6,1 C 80 % 0 % 996 hPa 0,0 l/m 9,6 km/h (2 Bft)
19.12.2009 15:46 20,9 C -8,1 C -6,1 C 80 % 0 % 996 hPa 0,0 l/m 6,1 km/h (2 Bft)
19.12.2009 15:49 21,0 C -8,1 C -5,8 C 80 % 0 % 996 hPa 0,0 l/m 6,1 km/h (2 Bft)
19.12.2009 15:52 21,0 C -8,1 C -5,4 C 80 % 0 % 996 hPa 0,0 l/m 6,3 km/h (2 Bft)
19.12.2009 15:55 21,0 C -8,1 C -5,5 C 80 % 0 % 997 hPa 0,0 l/m 8,1 km/h (2 Bft)
19.12.2009 15:58 21,0 C -8,2 C -5,9 C 78 % 0 % 996 hPa 0,0 l/m 1,2 km/h (1 Bft)
19.12.2009 16:01 21,0 C -8,3 C -6,3 C 78 % 0 % 997 hPa 0,0 l/m 1,2 km/h (1 Bft)
19.12.2009 16:04 21,2 C -8,3 C -6,3 C 78 % 0 % 996 hPa 0,0 l/m 1,2 km/h (1 Bft)
19.12.2009 16:07 21,2 C -8,4 C -6,1 C 78 % 0 % 996 hPa 0,0 l/m 0,5 km/h (0 Bft)
19.12.2009 16:10 21,2 C -8,4 C -6,0 C 78 % 0 % 996 hPa 0,0 l/m 0,6 km/h (0 Bft)
19.12.2009 16:13 21,2 C -8,4 C -6,3 C 79 % 0 % 997 hPa 0,0 l/m 1,1 km/h (1 Bft)
19.12.2009 16:16 21,3 C -8,5 C -5,9 C 79 % 0 % 997 hPa 0,0 l/m 5,6 km/h (1 Bft)
19.12.2009 16:19 21,3 C -8,5 C -5,7 C 79 % 0 % 997 hPa 0,0 l/m 0,1 km/h (0 Bft)
19.12.2009 16:22 21,3 C -8,5 C -5,9 C 79 % 0 % 997 hPa 0,0 l/m 0,1 km/h (0 Bft)
19.12.2009 16:25 21,4 C -8,5 C -5,9 C 79 % 0 % 997 hPa 0,0 l/m 0,1 km/h (0 Bft)
19.12.2009 16:28 21,4 C -8,5 C -6,0 C 79 % 0 % 997 hPa 0,0 l/m 0,0 km/h (0 Bft)
19.12.2009 16:31 21,4 C -8,6 C -6,1 C 80 % 0 % 997 hPa 0,0 l/m 0,0 km/h (0 Bft)
19.12.2009 16:34 21,4 C -8,6 C -6,3 C 80 % 0 % 997 hPa 0,0 l/m 0,3 km/h (0 Bft)
19.12.2009 16:37 21,4 C -8,6 C -6,6 C 80 % 0 % 997 hPa 0,0 l/m 0,1 km/h (0 Bft)
19.12.2009 16:40 21,5 C -8,7 C -6,4 C 80 % 0 % 997 hPa 0,0 l/m 0,1 km/h (0 Bft)
19.12.2009 16:43 21,5 C -8,7 C -6,3 C 80 % 0 % 997 hPa 0,0 l/m 0,0 km/h (0 Bft)
19.12.2009 16:46 21,5 C -8,7 C -6,5 C 80 % 0 % 997 hPa 0,0 l/m 0,0 km/h (0 Bft)
19.12.2009 16:49 21,4 C -8,8 C -6,7 C 80 % 0 % 997 hPa 0,0 l/m 0,0 km/h (0 Bft)
19.12.2009 16:52 21,4 C -8,8 C -6,9 C 80 % 0 % 997 hPa 0,0 l/m 0,0 km/h (0 Bft)
19.12.2009 16:55 21,5 C -8,8 C -7,0 C 80 % 0 % 997 hPa 0,0 l/m 0,3 km/h (0 Bft)
19.12.2009 16:58 21,5 C -8,8 C -7,0 C 80 % 0 % 997 hPa 0,0 l/m 0,3 km/h (0 Bft)
19.12.2009 17:01 21,4 C -8,8 C -7,1 C 80 % 0 % 997 hPa 0,0 l/m 0,0 km/h (0 Bft)
19.12.2009 17:04 21,5 C -8,8 C -7,1 C 80 % 0 % 997 hPa 0,0 l/m 0,0 km/h (0 Bft)
19.12.2009 17:07 21,4 C -8,8 C -7,2 C 80 % 0 % 997 hPa 0,0 l/m 0,0 km/h (0 Bft)
19.12.2009 17:10 21,4 C -9,1 C -7,2 C 80 % 0 % 997 hPa 0,0 l/m 0,0 km/h (0 Bft)
19.12.2009 17:13 21,4 C -9,1 C -7,2 C 80 % 0 % 997 hPa 0,0 l/m 0,0 km/h (0 Bft)
19.12.2009 17:16 21,4 C -9,1 C -7,2 C 80 % 0 % 996 hPa 0,0 l/m 0,0 km/h (0 Bft)
19.12.2009 17:19 21,4 C -9,1 C -7,3 C 80 % 0 % 997 hPa 0,0 l/m 0,0 km/h (0 Bft)
19.12.2009 17:22 21,3 C -9,1 C -7,4 C 80 % 0 % 997 hPa 0,0 l/m 0,0 km/h (0 Bft)
19.12.2009 17:25 21,3 C -9,3 C -7,5 C 79 % 0 % 997 hPa 0,0 l/m 0,0 km/h (0 Bft)
19.12.2009 17:28 21,3 C -9,3 C -7,3 C 79 % 0 % 997 hPa 0,0 l/m 0,0 km/h (0 Bft)
19.12.2009 17:31 21,2 C -9,4 C -7,3 C 79 % 0 % 997 hPa 0,0 l/m 0,0 km/h (0 Bft)
19.12.2009 17:34 21,2 C -9,5 C -7,5 C 79 % 0 % 997 hPa 0,0 l/m 0,0 km/h (0 Bft)
19.12.2009 17:37 21,2 C -9,5 C -7,5 C 79 % 0 % 997 hPa 0,0 l/m 0,2 km/h (0 Bft)
19.12.2009 17:40 21,2 C -9,5 C -7,9 C 79 % 0 % 997 hPa 0,0 l/m 0,2 km/h (0 Bft)
19.12.2009 17:43 21,2 C -9,7 C -8,1 C 77 % 0 % 997 hPa 0,0 l/m 4,5 km/h (1 Bft)
19.12.2009 17:46 21,2 C -9,7 C -8,1 C 77 % 0 % 997 hPa 0,0 l/m 9,6 km/h (2 Bft)
19.12.2009 17:49 21,2 C -9,7 C -8,0 C 77 % 0 % 997 hPa 0,0 l/m 1,2 km/h (1 Bft)
19.12.2009 17:52 21,2 C -9,7 C -8,0 C 77 % 0 % 997 hPa 0,0 l/m 3,9 km/h (1 Bft)
19.12.2009 17:55 21,2 C -9,9 C -8,3 C 77 % 0 % 997 hPa 0,0 l/m 0,9 km/h (0 Bft)
19.12.2009 17:58 21,2 C -9,9 C -8,2 C 77 % 0 % 997 hPa 0,0 l/m 2,9 km/h (1 Bft)
19.12.2009 18:01 21,2 C -9,9 C -8,1 C 77 % 0 % 997 hPa 0,0 l/m 3,1 km/h (1 Bft)
19.12.2009 18:04 21,2 C -10,0 C -8,1 C 77 % 0 % 997 hPa 0,0 l/m 3,0 km/h (1 Bft)
19.12.2009 18:07 21,2 C -10,0 C -8,3 C 77 % 0 % 997 hPa 0,0 l/m 7,2 km/h (2 Bft)
19.12.2009 18:10 21,2 C -10,1 C -8,3 C 77 % 0 % 997 hPa 0,0 l/m 6,8 km/h (2 Bft)
19.12.2009 18:13 21,2 C -10,1 C -8,9 C 77 % 0 % 997 hPa 0,0 l/m 9,1 km/h (2 Bft)
19.12.2009 18:16 21,3 C -10,4 C -8,7 C 77 % 0 % 997 hPa 0,0 l/m 5,7 km/h (1 Bft)
19.12.2009 18:19 21,2 C -10,4 C -8,5 C 77 % 0 % 997 hPa 0,0 l/m 4,5 km/h (1 Bft)
19.12.2009 18:22 21,2 C -10,4 C -8,5 C 77 % 0 % 997 hPa 0,0 l/m 4,6 km/h (1 Bft)
19.12.2009 18:25 21,2 C -10,4 C -8,6 C 77 % 0 % 997 hPa 0,0 l/m 5,5 km/h (1 Bft)
19.12.2009 18:28 21,3 C -10,4 C -8,2 C 77 % 0 % 997 hPa 0,0 l/m 0,6 km/h (0 Bft)
19.12.2009 18:31 21,3 C -10,4 C -8,4 C 77 % 0 % 997 hPa 0,0 l/m 3,7 km/h (1 Bft)
19.12.2009 18:34 21,3 C -10,4 C -8,6 C 77 % 0 % 997 hPa 0,0 l/m 7,0 km/h (2 Bft)
19.12.2009 18:37 21,3 C -10,4 C -8,5 C 77 % 0 % 997 hPa 0,0 l/m 4,7 km/h (1 Bft)
19.12.2009 18:40 21,3 C -10,6 C -8,8 C 77 % 0 % 997 hPa 0,0 l/m 8,7 km/h (2 Bft)
19.12.2009 18:43 21,3 C -10,6 C -8,5 C 77 % 0 % 997 hPa 0,0 l/m 5,0 km/h (1 Bft)
19.12.2009 18:46 21,3 C -10,6 C -8,6 C 77 % 0 % 997 hPa 0,0 l/m 5,2 km/h (1 Bft)
19.12.2009 18:49 21,3 C -10,7 C -8,7 C 77 % 0 % 997 hPa 0,0 l/m 5,5 km/h (1 Bft)
19.12.2009 18:52 21,3 C -10,7 C -8,3 C 77 % 0 % 997 hPa 0,0 l/m 5,2 km/h (1 Bft)
19.12.2009 18:55 21,3 C -10,6 C -8,6 C 78 % 0 % 997 hPa 0,0 l/m 10,6 km/h (2 Bft)
19.12.2009 18:58 21,3 C -10,6 C -8,1 C 78 % 0 % 997 hPa 0,0 l/m 2,8 km/h (1 Bft)
19.12.2009 19:01 21,3 C -10,5 C -8,0 C 78 % 0 % 997 hPa 0,0 l/m 2,8 km/h (1 Bft)
19.12.2009 19:04 21,3 C -10,5 C -7,8 C 78 % 0 % 997 hPa 0,0 l/m 3,4 km/h (1 Bft)
19.12.2009 19:07 21,2 C -10,5 C -7,9 C 78 % 0 % 997 hPa 0,0 l/m 4,2 km/h (1 Bft)
19.12.2009 19:10 21,3 C -10,4 C -7,9 C 77 % 0 % 997 hPa 0,0 l/m 3,4 km/h (1 Bft)
19.12.2009 19:13 21,3 C -10,4 C -7,8 C 78 % 0 % 997 hPa 0,0 l/m 3,7 km/h (1 Bft)
19.12.2009 19:16 21,3 C -10,4 C -7,7 C 78 % 0 % 997 hPa 0,0 l/m 1,8 km/h (1 Bft)
19.12.2009 19:19 21,3 C -10,4 C -7,7 C 78 % 0 % 997 hPa 0,0 l/m 2,9 km/h (1 Bft)
19.12.2009 19:22 21,3 C -10,4 C -8,5 C 78 % 0 % 998 hPa 0,0 l/m 8,4 km/h (2 Bft)
19.12.2009 19:25 21,3 C -10,4 C -8,5 C 78 % 0 % 998 hPa 0,0 l/m 8,5 km/h (2 Bft)
19.12.2009 19:28 21,3 C -10,4 C -8,8 C 78 % 0 % 997 hPa 0,0 l/m 9,0 km/h (2 Bft)
19.12.2009 19:31 21,3 C -10,4 C -8,3 C 78 % 0 % 997 hPa 0,0 l/m 7,8 km/h (2 Bft)
19.12.2009 19:34 21,3 C -10,4 C -8,3 C 78 % 0 % 998 hPa 0,0 l/m 8,2 km/h (2 Bft)
19.12.2009 19:37 21,3 C -10,4 C -8,5 C 79 % 0 % 998 hPa 0,0 l/m 10,0 km/h (2 Bft)
19.12.2009 19:40 21,3 C -10,4 C -8,1 C 79 % 0 % 998 hPa 0,0 l/m 8,2 km/h (2 Bft)
19.12.2009 19:43 21,3 C -10,4 C -8,4 C 79 % 0 % 998 hPa 0,0 l/m 13,8 km/h (3 Bft)
19.12.2009 19:46 21,3 C -10,4 C -8,4 C 79 % 0 % 998 hPa 0,0 l/m 11,5 km/h (2 Bft)
19.12.2009 19:49 21,3 C -10,4 C -8,7 C 79 % 0 % 998 hPa 0,0 l/m 15,6 km/h (3 Bft)
19.12.2009 19:52 21,2 C -10,2 C -8,9 C 78 % 0 % 998 hPa 0,0 l/m 15,1 km/h (3 Bft)
19.12.2009 19:55 21,2 C -10,2 C -8,5 C 79 % 0 % 998 hPa 0,0 l/m 15,1 km/h (3 Bft)
19.12.2009 19:58 21,2 C -10,2 C -8,5 C 78 % 0 % 998 hPa 0,0 l/m 13,6 km/h (3 Bft)
19.12.2009 20:01 21,2 C -10,2 C -8,6 C 78 % 0 % 998 hPa 0,0 l/m 17,8 km/h (3 Bft)
19.12.2009 20:04 21,2 C -10,2 C -8,7 C 78 % 0 % 998 hPa 0,0 l/m 16,7 km/h (3 Bft)
19.12.2009 20:07 21,2 C -10,1 C -8,5 C 78 % 0 % 998 hPa 0,0 l/m 16,5 km/h (3 Bft)
19.12.2009 20:10 21,2 C -10,1 C -7,9 C 77 % 0 % 998 hPa 0,0 l/m 14,5 km/h (3 Bft)
19.12.2009 20:13 21,3 C -10,1 C -8,0 C 77 % 0 % 998 hPa 0,0 l/m 10,6 km/h (2 Bft)
19.12.2009 20:16 21,2 C -10,1 C -8,3 C 77 % 0 % 998 hPa 0,0 l/m 16,0 km/h (3 Bft)
19.12.2009 20:19 21,3 C -10,0 C -8,4 C 77 % 0 % 998 hPa 0,0 l/m 11,6 km/h (2 Bft)
19.12.2009 20:22 21,3 C -10,0 C -8,4 C 77 % 0 % 998 hPa 0,0 l/m 25,6 km/h (4 Bft)
19.12.2009 20:25 21,3 C -10,1 C -8,5 C 75 % 0 % 998 hPa 0,0 l/m 18,1 km/h (3 Bft)
19.12.2009 20:28 21,3 C -10,1 C -8,9 C 75 % 0 % 998 hPa 0,0 l/m 16,8 km/h (3 Bft)
19.12.2009 20:31 21,3 C -10,0 C -9,0 C 76 % 0 % 998 hPa 0,0 l/m 16,8 km/h (3 Bft)
19.12.2009 20:34 21,3 C -10,0 C -8,6 C 76 % 0 % 998 hPa 0,0 l/m 15,0 km/h (3 Bft)
19.12.2009 20:37 21,2 C -10,0 C -8,4 C 77 % 0 % 998 hPa 0,0 l/m 14,3 km/h (3 Bft)
19.12.2009 20:40 21,2 C -10,1 C -8,5 C 76 % 0 % 998 hPa 0,0 l/m 9,0 km/h (2 Bft)
19.12.2009 20:43 21,2 C -10,1 C -8,1 C 76 % 0 % 998 hPa 0,0 l/m 9,4 km/h (2 Bft)
19.12.2009 20:46 21,2 C -10,1 C -7,9 C 75 % 0 % 998 hPa 0,0 l/m 14,5 km/h (3 Bft)
19.12.2009 20:49 21,2 C -10,1 C -8,4 C 75 % 0 % 998 hPa 0,0 l/m 15,2 km/h (3 Bft)
19.12.2009 20:52 21,2 C -10,1 C -8,4 C 75 % 0 % 998 hPa 0,0 l/m 18,2 km/h (3 Bft)
19.12.2009 20:55 21,2 C -10,1 C -8,9 C 75 % 0 % 998 hPa 0,0 l/m 13,0 km/h (3 Bft)
19.12.2009 20:58 21,2 C -10,1 C -8,6 C 75 % 0 % 998 hPa 0,0 l/m 13,1 km/h (3 Bft)
19.12.2009 21:01 21,3 C -10,1 C -8,6 C 74 % 0 % 998 hPa 0,0 l/m 22,6 km/h (4 Bft)
19.12.2009 21:04 21,3 C -10,1 C -9,2 C 75 % 0 % 999 hPa 0,0 l/m 19,0 km/h (3 Bft)
19.12.2009 21:07 21,3 C -10,1 C -8,9 C 75 % 0 % 999 hPa 0,0 l/m 15,8 km/h (3 Bft)
19.12.2009 21:10 21,3 C -10,0 C -8,7 C 75 % 0 % 999 hPa 0,0 l/m 11,3 km/h (2 Bft)
19.12.2009 21:13 21,3 C -10,0 C -9,4 C 75 % 0 % 999 hPa 0,0 l/m 17,8 km/h (3 Bft)
19.12.2009 21:16 21,3 C -10,0 C -9,0 C 74 % 0 % 999 hPa 0,0 l/m 21,4 km/h (4 Bft)
19.12.2009 21:19 21,3 C -10,0 C -9,1 C 74 % 0 % 999 hPa 0,0 l/m 23,8 km/h (4 Bft)
19.12.2009 21:22 21,3 C -10,4 C -8,8 C 74 % 0 % 999 hPa 0,0 l/m 14,8 km/h (3 Bft)
19.12.2009 21:25 21,3 C -10,4 C -9,3 C 74 % 0 % 999 hPa 0,0 l/m 10,6 km/h (2 Bft)
19.12.2009 21:31 21,3 C -10,4 C -8,9 C 74 % 0 % 999 hPa 0,0 l/m 14,5 km/h (3 Bft)
19.12.2009 21:34 21,3 C -10,4 C -8,9 C 74 % 0 % 999 hPa 0,0 l/m 11,2 km/h (2 Bft)
19.12.2009 21:37 21,3 C -10,4 C -9,1 C 74 % 0 % 999 hPa 0,0 l/m 20,0 km/h (4 Bft)
19.12.2009 21:40 21,3 C -10,4 C -9,0 C 75 % 0 % 999 hPa 0,0 l/m 15,0 km/h (3 Bft)
19.12.2009 21:43 21,3 C -10,4 C -8,8 C 75 % 0 % 999 hPa 0,0 l/m 13,2 km/h (3 Bft)
19.12.2009 21:46 21,3 C -10,5 C -9,1 C 76 % 0 % 999 hPa 0,0 l/m 13,1 km/h (3 Bft)
19.12.2009 21:49 21,3 C -10,5 C -9,0 C 76 % 0 % 999 hPa 0,0 l/m 12,6 km/h (3 Bft)
19.12.2009 21:52 21,3 C -10,5 C -9,0 C 76 % 0 % 999 hPa 0,0 l/m 10,3 km/h (2 Bft)
19.12.2009 21:55 21,3 C -10,6 C -9,1 C 76 % 0 % 999 hPa 0,0 l/m 12,5 km/h (3 Bft)
19.12.2009 21:58 21,3 C -10,6 C -9,1 C 76 % 0 % 999 hPa 0,0 l/m 17,7 km/h (3 Bft)
19.12.2009 22:01 21,3 C -10,7 C -9,3 C 76 % 0 % 999 hPa 0,0 l/m 25,6 km/h (4 Bft)
19.12.2009 22:04 21,3 C -10,7 C -9,1 C 76 % 0 % 999 hPa 0,0 l/m 19,3 km/h (3 Bft)
19.12.2009 22:07 21,3 C -10,7 C -9,3 C 76 % 0 % 999 hPa 0,0 l/m 13,8 km/h (3 Bft)
19.12.2009 22:10 21,3 C -10,7 C -9,3 C 76 % 0 % 999 hPa 0,0 l/m 9,6 km/h (2 Bft)
19.12.2009 22:13 21,3 C -10,7 C -9,3 C 76 % 0 % 999 hPa 0,0 l/m 9,6 km/h (2 Bft)
19.12.2009 22:16 21,3 C -10,8 C -9,2 C 77 % 0 % 999 hPa 0,0 l/m 12,5 km/h (3 Bft)
19.12.2009 22:19 21,3 C -10,8 C -9,1 C 78 % 0 % 999 hPa 0,0 l/m 7,4 km/h (2 Bft)
19.12.2009 22:22 21,2 C -10,8 C -8,5 C 78 % 0 % 999 hPa 0,0 l/m 0,3 km/h (0 Bft)
19.12.2009 22:25 21,2 C -10,8 C -8,6 C 78 % 0 % 999 hPa 0,0 l/m 5,0 km/h (1 Bft)
19.12.2009 22:28 21,3 C -10,8 C -9,3 C 78 % 0 % 999 hPa 0,0 l/m 6,9 km/h (2 Bft)
19.12.2009 22:31 21,3 C -10,8 C -9,2 C 78 % 0 % 999 hPa 0,0 l/m 8,5 km/h (2 Bft)
19.12.2009 22:34 21,2 C -10,8 C -9,0 C 78 % 0 % 999 hPa 0,0 l/m 6,1 km/h (2 Bft)
19.12.2009 22:37 21,2 C -10,8 C -9,0 C 78 % 0 % 1000 hPa 0,0 l/m 10,4 km/h (2 Bft)
19.12.2009 22:40 21,2 C -10,8 C -9,6 C 78 % 0 % 1000 hPa 0,0 l/m 9,4 km/h (2 Bft)
19.12.2009 22:43 21,2 C -10,8 C -9,1 C 78 % 0 % 1000 hPa 0,0 l/m 11,4 km/h (2 Bft)
19.12.2009 22:46 21,3 C -11,2 C -9,5 C 80 % 0 % 1000 hPa 0,3 l/m 15,1 km/h (3 Bft)
19.12.2009 22:49 21,3 C -11,2 C -9,5 C 81 % 0 % 1000 hPa 0,0 l/m 12,8 km/h (3 Bft)
19.12.2009 22:52 21,3 C -11,3 C -9,5 C 81 % 0 % 1000 hPa 0,0 l/m 10,6 km/h (2 Bft)
19.12.2009 22:55 21,3 C -11,3 C -9,5 C 81 % 0 % 1000 hPa 0,0 l/m 17,5 km/h (3 Bft)
19.12.2009 22:58 21,3 C -11,3 C -9,6 C 81 % 0 % 1000 hPa 0,0 l/m 13,1 km/h (3 Bft)
19.12.2009 23:01 21,2 C -11,3 C -9,8 C 81 % 0 % 1000 hPa 0,0 l/m 12,5 km/h (3 Bft)
19.12.2009 23:04 21,2 C -11,3 C -10,1 C 81 % 0 % 1000 hPa 0,0 l/m 15,7 km/h (3 Bft)
19.12.2009 23:07 21,2 C -11,3 C -10,1 C 81 % 0 % 1000 hPa 0,0 l/m 11,2 km/h (2 Bft)
19.12.2009 23:10 21,2 C -11,5 C -9,8 C 81 % 0 % 1000 hPa 0,0 l/m 11,2 km/h (2 Bft)
19.12.2009 23:13 21,2 C -11,5 C -9,6 C 82 % 0 % 1000 hPa 0,0 l/m 12,8 km/h (3 Bft)
19.12.2009 23:16 21,2 C -11,5 C -9,7 C 82 % 0 % 1000 hPa 0,0 l/m 6,9 km/h (2 Bft)
19.12.2009 23:19 21,2 C -11,5 C -9,1 C 82 % 0 % 1000 hPa 0,0 l/m 13,4 km/h (3 Bft)
19.12.2009 23:22 21,3 C -11,5 C -9,3 C 82 % 0 % 1000 hPa 0,0 l/m 12,7 km/h (3 Bft)
19.12.2009 23:25 21,3 C -11,5 C -9,2 C 82 % 0 % 1000 hPa 0,0 l/m 19,6 km/h (3 Bft)
19.12.2009 23:28 21,3 C -11,5 C -9,4 C 82 % 0 % 1000 hPa 0,0 l/m 15,6 km/h (3 Bft)
19.12.2009 23:31 21,3 C -11,5 C -9,3 C 82 % 0 % 1000 hPa 0,0 l/m 15,6 km/h (3 Bft)
19.12.2009 23:34 21,3 C -11,5 C -9,2 C 82 % 0 % 1000 hPa 0,0 l/m 13,4 km/h (3 Bft)
19.12.2009 23:37 21,3 C -11,5 C -9,9 C 82 % 0 % 1000 hPa 0,0 l/m 21,0 km/h (4 Bft)
19.12.2009 23:40 21,3 C -11,6 C -10,4 C 82 % 0 % 1000 hPa 0,0 l/m 18,9 km/h (3 Bft)
19.12.2009 23:43 21,3 C -11,6 C -9,8 C 82 % 0 % 1000 hPa 0,0 l/m 17,7 km/h (3 Bft)
19.12.2009 23:46 21,3 C -11,6 C -9,8 C 82 % 0 % 1000 hPa 0,0 l/m 11,6 km/h (2 Bft)
19.12.2009 23:49 21,3 C -11,7 C -9,8 C 82 % 0 % 1000 hPa 0,0 l/m 10,6 km/h (2 Bft)
19.12.2009 23:52 21,3 C -11,8 C -9,4 C 82 % 0 % 1000 hPa 0,0 l/m 10,0 km/h (2 Bft)
19.12.2009 23:55 21,3 C -11,8 C -9,6 C 82 % 0 % 1000 hPa 0,0 l/m 13,1 km/h (3 Bft)
19.12.2009 23:58 21,2 C -11,8 C -9,9 C 82 % 0 % 1000 hPa 0,0 l/m 19,6 km/h (3 Bft)
_ Min-Zeit 12:34 23:52 23:40 21:01 - 00:21 - 01:48
Minimum _ 15,2 C -11,8 C -10,4 C 74 % - 995 hPa - 0,0 km/h (0 Bft)
_ Max-Zeit 08:37 13:19 12:52 06:31 00:00 22:37 11:34 20:22
Maximum _ 22,3 C -5,7 C -2,9 C 87 % 0 % 1000 hPa 0,3 l/m 25,6 km/h
NW (4 Bft)
Durchschnitt _ 21,3 C -8,3 C -7,3 C 82 % #0 min. 997 hPa #1,0 l/m 4,8 km/h (1 Bft)